Tracking 27380 objects as of 5-Jun-2023
HD Live streaming from Space Station
objects crossing your sky now

ONEWEB-0446

Track ONEWEB-0446 now!
10-day predictions
ONEWEB-0446 is classified as:


NORAD ID: 51640
Int'l Code: 2022-012U
Perigee: 1,227.6 km
Apogee: 1,230.1 km
Inclination: 87.9 °
Period: 109.9 minutes
Semi major axis: 7599 km
RCS: Unknown
Launch date: February 10, 2022
Source: United Kingdom (UK)
Launch site: FRENCH GUIANA (FRGUI)
Your satellite tracking list
Your tracking list is empty




NASA's NSSDC Master Catalog

Two Line Element Set (TLE):
1 51640U 22012U   23155.84220758 -.00000555  00000-0 -16263-2 0  9992
2 51640  87.8836 256.4072 0001701 100.9428 259.1891 13.10372886 64179
Source of the keplerian elements: AFSPC